| time (UTC) | temp F | wind direction | speed knots | gust knots | rain 1hr in | rain 24hr in | rain mn in | humidity % | barometer mb |
| 20260503021519 | 52 | 323 | 0.0 | 0.0 | 0.00 | 0.59 | 0.59 | 91 | 1015.6 |
| 20260503020019 | 52 | 323 | 0.0 | 0.0 | 0.00 | 0.59 | 0.59 | 91 | 1015.2 |
| 20260503014510 | 52 | 323 | 0.0 | 0.0 | 0.00 | 0.59 | 0.59 | 90 | 1014.9 |
| 20260503013009 | 52 | 323 | 0.0 | 0.0 | 0.00 | 0.59 | 0.59 | 89 | 1014.7 |
| 20260503011507 | 53 | 323 | 0.0 | 0.0 | 0.00 | 0.59 | 0.59 | 89 | 1014.4 |
| 20260503010005 | 53 | 323 | 0.0 | 0.0 | 0.00 | 0.59 | 0.59 | 88 | 1014.3 |
| 20260503004504 | 53 | 323 | 0.0 | 0.0 | 0.00 | 0.59 | 0.59 | 88 | 1014.1 |
| 20260503003002 | 54 | 323 | 0.0 | 0.0 | 0.00 | 0.59 | 0.59 | 87 | 1013.9 |
| 20260503001503 | 54 | 323 | 0.0 | 0.0 | 0.00 | 0.59 | 0.59 | 86 | 1013.6 |
| 20260503000106 | 54 | 323 | 0.0 | 0.0 | 0.00 | 0.59 | 0.59 | 86 | 1013.5 |
| 20260502234618 | 54 | 323 | 0.0 | 0.0 | 0.00 | 0.59 | 0.59 | 87 | 1013.3 |
| 20260502233059 | 55 | 323 | 0.0 | 0.0 | 0.00 | 0.59 | 0.59 | 86 | 1013.2 |
| 20260502231559 | 56 | 323 | 0.0 | 1.7 | 0.00 | 0.59 | 0.59 | 83 | 1013.0 |
| 20260502230059 | 58 | 323 | 0.0 | 2.6 | 0.00 | 0.59 | 0.59 | 77 | 1012.9 |
| 20260502224602 | 59 | 119 | 0.0 | 2.6 | 0.00 | 0.59 | 0.59 | 76 | 1012.9 |
| 20260502223105 | 58 | 30 | 0.0 | 1.7 | 0.00 | 0.59 | 0.59 | 78 | 1013.1 |
| 20260502221601 | 59 | 26 | 0.0 | 2.6 | 0.00 | 0.59 | 0.59 | 77 | 1013.1 |
| 20260502214613 | 56 | 52 | 0.0 | 2.6 | 0.00 | 0.59 | 0.59 | 80 | 1012.9 |
| 20260502213118 | 57 | 346 | 0.0 | 4.3 | 0.00 | 0.59 | 0.59 | 81 | 1012.7 |
| 20260502211557 | 56 | 355 | 0.0 | 2.6 | 0.00 | 0.59 | 0.59 | 81 | 1012.6 |
| 20260502210054 | 56 | 250 | 0.9 | 2.6 | 0.00 | 0.59 | 0.59 | 80 | 1012.5 |
| 20260502204552 | 56 | 295 | 0.0 | 4.3 | 0.00 | 0.59 | 0.59 | 80 | 1012.8 |
| 20260502203111 | 56 | 14 | 0.0 | 3.5 | 0.00 | 0.59 | 0.59 | 82 | 1012.9 |
| 20260502201550 | 56 | 360 | 0.0 | 2.6 | 0.00 | 0.59 | 0.59 | 86 | 1012.9 |
| 20260502200056 | 56 | 30 | 2.6 | 4.3 | 0.00 | 0.59 | 0.59 | 85 | 1012.8 |
| 20260502194551 | 56 | 188 | 0.0 | 3.5 | 0.00 | 0.59 | 0.59 | 86 | 1013.0 |
| 20260502193048 | 55 | 161 | 0.0 | 5.2 | 0.00 | 0.59 | 0.59 | 90 | 1013.1 |
| 20260502191549 | 55 | 220 | 0.9 | 5.2 | 0.00 | 0.59 | 0.59 | 89 | 1013.2 |
| 20260502190046 | 55 | 77 | 1.7 | 5.2 | 0.00 | 0.59 | 0.59 | 90 | 1013.2 |
| 20260502184545 | 54 | 61 | 1.7 | 7.8 | 0.00 | 0.59 | 0.59 | 92 | 1013.2 |
| 20260502183044 | 54 | 261 | 0.0 | 5.2 | 0.00 | 0.59 | 0.59 | 94 | 1013.3 |
| 20260502181544 | 53 | 59 | 0.0 | 3.5 | 0.01 | 0.59 | 0.59 | 94 | 1013.2 |
| 20260502163042 | 58 | 106 | 0.0 | 4.3 | 0.03 | 0.57 | 0.57 | 95 | 1012.6 |
| 20260502161553 | 58 | 27 | 0.0 | 4.3 | 0.03 | 0.57 | 0.57 | 95 | 1013.0 |
| 20260502151532 | 58 | 78 | 0.0 | 2.6 | 0.03 | 0.57 | 0.55 | 96 | 1012.8 |
| 20260502123012 | 57 | 284 | 0.0 | 0.0 | 0.11 | 0.45 | 0.35 | 95 | 1013.2 |
| 20260502121511 | 58 | 284 | 0.0 | 0.0 | 0.08 | 0.41 | 0.31 | 95 | 1012.9 |
| 20260502114511 | 57 | 276 | 0.0 | 0.0 | 0.05 | 0.37 | 0.27 | 95 | 1011.9 |
| 20260502113009 | 57 | 276 | 0.0 | 0.0 | 0.02 | 0.34 | 0.24 | 95 | 1012.0 |
| 20260502111508 | 57 | 276 | 0.0 | 0.9 | 0.03 | 0.33 | 0.23 | 95 | 1011.9 |
| 20260502110008 | 57 | 233 | 0.0 | 0.9 | 0.03 | 0.33 | 0.23 | 95 | 1011.1 |
| 20260502104514 | 57 | 232 | 0.0 | 0.9 | 0.04 | 0.32 | 0.22 | 95 | 1010.7 |
| 20260502103004 | 57 | 232 | 0.0 | 0.0 | 0.06 | 0.32 | 0.22 | 94 | 1011.1 |
| 20260502101502 | 58 | 232 | 0.0 | 0.0 | 0.05 | 0.30 | 0.20 | 94 | 1011.4 |
| 20260502090103 | 58 | 232 | 0.0 | 0.0 | 0.09 | 0.23 | 0.13 | 94 | 1012.4 |
| 20260502070106 | 58 | 233 | 0.0 | 0.0 | 0.00 | 0.10 | 0.00 | 92 | 1012.4 |
| 20260502064552 | 58 | 233 | 0.0 | 0.0 | 0.00 | 0.10 | 0.00 | 92 | 1012.5 |
| 20260502063051 | 58 | 232 | 0.0 | 0.0 | 0.00 | 0.10 | 0.00 | 92 | 1012.5 |
| 20260502061548 | 58 | 232 | 0.0 | 0.0 | 0.00 | 0.10 | 0.00 | 92 | 1012.3 |
| 20260502060051 | 57 | 232 | 0.0 | 0.0 | 0.00 | 0.10 | 0.00 | 92 | 1012.6 |
| 20260502054544 | 57 | 232 | 0.0 | 0.0 | 0.00 | 0.10 | 0.00 | 92 | 1012.8 |
| 20260502053043 | 58 | 232 | 0.0 | 0.0 | 0.00 | 0.10 | 0.00 | 92 | 1012.9 |
| 20260502051556 | 57 | 233 | 0.0 | 0.0 | 0.00 | 0.10 | 0.00 | 91 | 1013.2 |
| 20260502050045 | 58 | 233 | 0.0 | 0.0 | 0.00 | 0.10 | 0.00 | 92 | 1013.0 |
| 20260502044544 | 58 | 232 | 0.0 | 0.0 | 0.00 | 0.10 | 0.00 | 91 | 1012.9 |
| 20260502043044 | 58 | 232 | 0.0 | 0.0 | 0.00 | 0.10 | 0.00 | 91 | 1012.9 |
| 20260502041537 | 58 | 233 | 0.0 | 0.0 | 0.00 | 0.10 | 0.00 | 91 | 1013.0 |
| 20260502040035 | 58 | 232 | 0.0 | 0.0 | 0.00 | 0.10 | 0.00 | 91 | 1013.2 |
| 20260502034535 | 58 | 233 | 0.0 | 0.0 | 0.00 | 0.10 | 0.10 | 90 | 1013.3 |
| 20260502033033 | 58 | 233 | 0.0 | 0.0 | 0.00 | 0.10 | 0.10 | 90 | 1013.4 |
| 20260502031533 | 58 | 232 | 0.0 | 0.0 | 0.00 | 0.10 | 0.10 | 89 | 1013.2 |
| 20260502030033 | 58 | 232 | 0.0 | 0.0 | 0.00 | 0.10 | 0.10 | 89 | 1013.4 |
| 20260502024533 | 58 | 233 | 0.0 | 0.0 | 0.00 | 0.10 | 0.10 | 89 | 1013.4 |
| 20260502023032 | 59 | 233 | 0.0 | 0.0 | 0.00 | 0.10 | 0.10 | 88 | 1013.3 |